If you wish to contribute or participate in the discussions about articles you are invited to join SKYbrary as a registered user

 Actions

Ahvaz International Airport

From SKYbrary Wiki

OIAW
Airport
ICAO: OIAW – IATA: AWZ
Summary
Name Ahvaz International Airport
Region Middle East
Territory Iran IR.gif
Location Ahvaz, Khuzestan
Serving Ahvas
Elevation 20.117 m66 ft20.117 m
Coordinates 31° 20' 15", 48° 45' 37.0008"
Runways
Designator Length Width Surface ROPS
12/30 3398 m11,148.294 ft 45 m147.638 ft ASP yes/yes


METAR
Observation OIAW 210600Z 31010KT CAVOK 39/05 Q1001
Station Ahwaz
Date/Time 21 June 2018 06:00:00
Wind direction 310°
Wind speed 10 kts
Lowest cloud amount clouds and visibility OK
Temperature 39°C
Dew point 5°C
Humidity 12%
QNH 1001 hPa
Weather condition n/a

Ahvaz (or Ahwaz) airport serves the city of Ahvaz, west Iran.

Climatology

Hot Desert Climate (Köppen climate classification BWh)

Maps

Terrain

Loading map...

Airport Layout

Loading map...


Accidents & Serious Incidents at or in vicinity of OIAW

None on SKYbrary